User: anonymous   Login
Location: Mentone
(34.5413°N, 85.5351°W)
Time: 03:25:19
(UTC-06:00)
Language:

Cosmos 2150 Rocket - Orbit

View from above orbital plane
View from above orbital plane
View from above satellite
View from above satellite

Ground track
Ground track

The orbit data is extracted from the following two-line orbital elements,

1 21419U 91041B   15028.64944365  .00000205  00000-0  82777-4 0  7180
2 21419 074.0401 091.5831 0042055 232.5480 283.9313 14.33661216235701
Epoch (UTC): 28 January 2015 15:35:11
Eccentricity: 0.0042055
inclination: 74.0401°
perigee height: 749 km
apogee height: 809 km
right ascension of ascending node: 91.5831°
argument of perigee: 232.5480°
revolutions per day: 14.33661216
mean anomaly at epoch: 283.9313°
orbit number at epoch: 23570

The dashed part of the orbit path shows where the satellite is in the earth's shadow,  

DLR